Weather in Nome

United States     64°30′34″N   165°25′51″W
temp.,
°C
wind,
m/s
gust,
m/s
humid.,
%
clouds,
%
prec.,
mm/h
press.,
hPa
HPBL,
m
7 may, fri
fri701:000nne34923 0.0 101249
04:000nne34865 0.0 101250
07:00+1nne457493 0.0 101158
10:00+4n466899 0.0 1010160
13:00+5nne476167 0.0 1010591
16:00+6ne46588 0.0 1010814
19:00+5ne35575 0.0 1010620
22:00+4nne35635 0.0 1010226
8 may, sat
sat801:00+1nne34715 0.0 101244
04:00+1ne337412 0.0 101218
07:00+2ne2273100 0.0 101222
10:00+3ne2271100 0.0 101362
13:00+5ene2364100 0.0 1014357
16:00+6ese1361100 0.0 1014729
19:00+6e136185 0.0 1014878
22:00+6ene236586 0.0 1015302
9 may, sun
sun901:00+4ne227084 0.0 101543
04:00+4nne4571100 0.1 101590
07:00+4ene4879100 0.3 1016214
10:00+3ese2286100 1.1 101728
13:00+4e3884100 0.5 1017322
16:00+4ene3585100 0.7 1017273
19:00+6ene3678100 0.1 1017389
22:00+6ene3578100 0.1 1017106
10 may, mon
mon1001:00+5ne3483100 0.0 101658
04:00+4nne448747 0.0 101643
07:00+4ne338772 0.0 101530
10:00+6ene357493 0.0 1016234
13:00+8ese576567 0.0 1015688
16:00+8se466316 0.1 1016713
19:00+7s2365100 0.0 1015537
22:00+6w2271100 0.1 1015135
11 may, tue
tue1101:00+6n2273100 0.0 101515
04:00+5ne227689 0.0 101518
07:00+5nne227599 0.0 101530
10:00+6ne226698 0.0 1015144
13:00+8ne125797 0.0 1015330
16:00+7ssw226284 0.0 1016382
19:00+7sw216290 0.0 1015352
22:00+6sw1166100 0.0 101577